Weather History for Mount Sterling, KY

Change the Weather History Date:

Saturday, March 16, 2013

  Actual Average Record
Temperature  
Mean Temperature 56 °F -  
Max Temperature 69 °F 54 °F 69 °F (2013)
Min Temperature 42 °F 32 °F 26 °F (2014)
Degree Days  
Heating Degree Days 10    
Growing Degree Days 6 (Base 50)    
Moisture  
Dew Point 45 °F    
Average Humidity 60    
Maximum Humidity 87    
Minimum Humidity 46    
Precipitation  
Precipitation 0.00 in - - ()
Sea Level Pressure  
Sea Level Pressure 29.78 in    
Wind  
Wind Speed 11 mph (WNW)    
Max Wind Speed 24 mph    
Max Gust Speed 36 mph    
Visibility 10 miles    
Events Rain    
Averages and records for this station are not official NWS values.
T = Trace of Precipitation, MM = Missing Value Source: NWS Daily Summary

Daily Weather History Graph

Daily Weather History Graph

Search for Another Location

Airport:

Trip Planner

Search our weather history database for the weather conditions in past years. The results will help you decide how hot, cold, wet, or windy it might be!

Date:

Astronomy

Mar. 16, 2013 Rise Set
Actual Time 7:45 AM EDT 7:44 PM EDT
Civil Twilight 7:18 AM EDT 8:10 PM EDT
Nautical Twilight 6:48 AM EDT 8:41 PM EDT
Astronomical Twilight 6:17 AM EDT 9:12 PM EDT
Moon 10:18 AM EDT (3/16) No Moon Set
Length of Visible Light 12h 51m
Length of Day
11h 59m
Waxing Crescent, 23% of the Moon is Illuminated
Mar 16
Waxing Crescent
Mar 19
First Quarter
Mar 27
Full
Apr 3
Last Quarter
Apr 10
New

Hourly Weather History & Observations

Time (EDT) Temp. Windchill Dew Point Humidity Pressure Visibility Wind Dir Wind Speed Gust Speed Precip Events Conditions
12:15 AM 51.8 °F - 39.2 °F 62% 29.81 in 10.0 mi SSE 6.9 mph - N/A   Mostly Cloudy
12:35 AM 51.8 °F - 39.2 °F 62% 29.80 in 10.0 mi South 6.9 mph - N/A   Overcast
12:55 AM 51.8 °F - 41.0 °F 67% 29.80 in 10.0 mi Calm Calm - N/A   Overcast
1:15 AM 50.0 °F - 41.0 °F 71% 29.78 in 10.0 mi SSW 6.9 mph - N/A   Overcast
1:35 AM 51.8 °F - 41.0 °F 67% 29.77 in 10.0 mi SW 9.2 mph - N/A   Overcast
1:55 AM 53.6 °F - 41.0 °F 62% 29.75 in 10.0 mi SW 8.1 mph - N/A   Mostly Cloudy
2:15 AM 53.6 °F - 41.0 °F 62% 29.74 in 10.0 mi SW 8.1 mph - N/A   Mostly Cloudy
2:35 AM 53.6 °F - 41.0 °F 62% 29.73 in 10.0 mi SW 8.1 mph - N/A   Scattered Clouds
2:55 AM 51.8 °F - 41.0 °F 67% 29.72 in 10.0 mi SW 8.1 mph - N/A   Clear
3:15 AM 53.6 °F - 42.8 °F 67% 29.71 in 10.0 mi WSW 13.8 mph - N/A   Clear
3:35 AM 55.4 °F - 44.6 °F 67% 29.70 in 10.0 mi WSW 16.1 mph 23.0 mph N/A   Scattered Clouds
3:55 AM 57.2 °F - 44.6 °F 63% 29.70 in 10.0 mi WSW 15.0 mph 24.2 mph N/A   Scattered Clouds
4:15 AM 57.2 °F - 44.6 °F 63% 29.70 in 10.0 mi West 13.8 mph 24.2 mph N/A   Mostly Cloudy
4:35 AM 59.0 °F - 44.6 °F 59% 29.72 in 10.0 mi West 10.4 mph 24.2 mph N/A   Scattered Clouds
4:55 AM 59.0 °F - 44.6 °F 59% 29.71 in 10.0 mi West 10.4 mph 16.1 mph N/A   Clear
5:15 AM 57.2 °F - 44.6 °F 63% 29.71 in 10.0 mi West 9.2 mph - N/A   Clear
5:35 AM 57.2 °F - 44.6 °F 63% 29.71 in 10.0 mi West 10.4 mph - N/A   Clear
5:55 AM 57.2 °F - 44.6 °F 63% 29.71 in 10.0 mi West 10.4 mph - N/A   Clear
6:15 AM 59.0 °F - 44.6 °F 59% 29.71 in 10.0 mi West 9.2 mph - N/A   Clear
6:35 AM 59.0 °F - 44.6 °F 59% 29.71 in 10.0 mi West 10.4 mph - N/A   Clear
6:55 AM 59.0 °F - 44.6 °F 59% 29.71 in 10.0 mi West 12.7 mph - N/A   Clear
7:15 AM 59.0 °F - 44.6 °F 59% 29.71 in 10.0 mi West 13.8 mph 19.6 mph N/A   Clear
7:35 AM 59.0 °F - 44.6 °F 59% 29.71 in 10.0 mi WSW 13.8 mph 23.0 mph N/A   Clear
7:55 AM 59.0 °F - 44.6 °F 59% 29.72 in 10.0 mi West 13.8 mph 20.7 mph N/A   Clear
8:15 AM 59.0 °F - 44.6 °F 59% 29.71 in 10.0 mi West 17.3 mph 24.2 mph N/A   Clear
8:35 AM 60.8 °F - 44.6 °F 55% 29.72 in 10.0 mi West 15.0 mph 19.6 mph N/A   Clear
8:55 AM 60.8 °F - 44.6 °F 55% 29.72 in 10.0 mi West 19.6 mph 29.9 mph N/A   Clear
9:15 AM 60.8 °F - 44.6 °F 55% 29.73 in 10.0 mi West 21.9 mph 26.5 mph N/A   Clear
9:35 AM 60.8 °F - 46.4 °F 59% 29.72 in 10.0 mi West 18.4 mph 29.9 mph N/A   Clear
9:55 AM 60.8 °F - 46.4 °F 59% 29.72 in 10.0 mi West 16.1 mph 27.6 mph N/A   Clear
10:15 AM 62.6 °F - 46.4 °F 55% 29.71 in 10.0 mi West 21.9 mph 32.2 mph N/A   Clear
10:35 AM 64.4 °F - 46.4 °F 52% 29.72 in 10.0 mi West 24.2 mph 31.1 mph N/A   Clear
10:55 AM 64.4 °F - 46.4 °F 52% 29.71 in 10.0 mi West 19.6 mph 31.1 mph N/A   Clear
11:15 AM 64.4 °F - 46.4 °F 52% 29.71 in 10.0 mi West 20.7 mph 32.2 mph N/A   Clear
11:35 AM 66.2 °F - 46.4 °F 49% 29.72 in 10.0 mi West 21.9 mph 32.2 mph N/A   Clear
11:55 AM 66.2 °F - 46.4 °F 49% 29.72 in 10.0 mi West 23.0 mph 32.2 mph N/A   Clear
12:15 PM 68.0 °F - 46.4 °F 46% 29.72 in 10.0 mi West 21.9 mph 35.7 mph N/A   Clear
12:35 PM 68.0 °F - 46.4 °F 46% 29.72 in 10.0 mi West 19.6 mph 32.2 mph N/A   Clear
12:55 PM 68.0 °F - 48.2 °F 49% 29.73 in 10.0 mi West 21.9 mph 33.4 mph N/A   Scattered Clouds
1:15 PM 68.0 °F - 48.2 °F 49% 29.73 in 10.0 mi West 21.9 mph 32.2 mph N/A   Scattered Clouds
1:35 PM 68.0 °F - 48.2 °F 49% 29.74 in 10.0 mi WNW 12.7 mph 27.6 mph N/A   Scattered Clouds
1:55 PM 68.0 °F - 48.2 °F 49% 29.75 in 10.0 mi West 17.3 mph 28.8 mph N/A   Overcast
2:15 PM 68.0 °F - 48.2 °F 49% 29.75 in 10.0 mi West 16.1 mph 25.3 mph N/A   Overcast
2:35 PM 66.2 °F - 48.2 °F 52% 29.75 in 10.0 mi West 11.5 mph 24.2 mph N/A   Overcast
2:55 PM 68.0 °F - 50.0 °F 52% 29.75 in 10.0 mi West 11.5 mph 23.0 mph N/A   Overcast
3:15 PM 68.0 °F - 50.0 °F 52% 29.75 in 10.0 mi West 12.7 mph 21.9 mph N/A   Overcast
3:35 PM 68.0 °F - 50.0 °F 52% 29.75 in 10.0 mi West 13.8 mph 20.7 mph N/A   Overcast
3:55 PM 69.8 °F - 48.2 °F 46% 29.75 in 10.0 mi WNW 16.1 mph 25.3 mph N/A   Mostly Cloudy
4:15 PM 68.0 °F - 48.2 °F 49% 29.76 in 10.0 mi NW 16.1 mph 23.0 mph N/A   Mostly Cloudy
4:35 PM 69.8 °F - 50.0 °F 49% 29.76 in 10.0 mi NW 13.8 mph 20.7 mph N/A   Scattered Clouds
4:55 PM 69.8 °F - 48.2 °F 46% 29.77 in 10.0 mi NNW 13.8 mph 23.0 mph N/A   Mostly Cloudy
5:15 PM 66.2 °F - 50.0 °F 56% 29.79 in 10.0 mi North 12.7 mph 18.4 mph N/A   Mostly Cloudy
5:35 PM 64.4 °F - 48.2 °F 56% 29.80 in 10.0 mi North 10.4 mph 20.7 mph N/A   Scattered Clouds
5:55 PM 62.6 °F - 46.4 °F 55% 29.81 in 10.0 mi North 13.8 mph 20.7 mph N/A   Scattered Clouds
6:15 PM 62.6 °F - 46.4 °F 55% 29.82 in 10.0 mi North 12.7 mph 18.4 mph N/A   Scattered Clouds
6:35 PM 60.8 °F - 46.4 °F 59% 29.83 in 10.0 mi North 11.5 mph 17.3 mph N/A   Scattered Clouds
6:55 PM 60.8 °F - 46.4 °F 59% 29.85 in 10.0 mi North 11.5 mph 18.4 mph N/A   Clear
7:15 PM 59.0 °F - 44.6 °F 59% 29.87 in 10.0 mi North 10.4 mph 17.3 mph N/A   Clear
7:35 PM 57.2 °F - 44.6 °F 63% 29.88 in 10.0 mi North 13.8 mph 21.9 mph N/A   Clear
7:55 PM 55.4 °F - 44.6 °F 67% 29.89 in 10.0 mi NNE 8.1 mph 17.3 mph N/A   Clear
8:15 PM 53.6 °F - 42.8 °F 67% 29.90 in 10.0 mi NNE 13.8 mph 19.6 mph N/A   Scattered Clouds
8:35 PM 51.8 °F - 42.8 °F 71% 29.90 in 10.0 mi NE 11.5 mph 17.3 mph N/A   Scattered Clouds
8:55 PM 50.0 °F - 41.0 °F 71% 29.91 in 10.0 mi NE 6.9 mph - N/A   Clear
9:15 PM 48.2 °F - 41.0 °F 76% 29.91 in 10.0 mi East 12.7 mph - N/A   Clear
9:35 PM 46.4 °F 41.9 °F 41.0 °F 81% 29.94 in 7.0 mi ENE 9.2 mph - N/A   Clear
9:55 PM 46.4 °F 42.9 °F 41.0 °F 81% 29.96 in 7.0 mi ENE 6.9 mph - N/A   Scattered Clouds
10:15 PM 44.6 °F 40.2 °F 41.0 °F 87% 29.98 in 7.0 mi NE 8.1 mph - N/A   Overcast
10:35 PM 44.6 °F 40.2 °F 39.2 °F 81% 30.00 in 7.0 mi NE 8.1 mph - N/A   Overcast
10:55 PM 44.6 °F 40.7 °F 37.4 °F 76% 29.99 in 7.0 mi NE 6.9 mph - N/A   Mostly Cloudy
11:15 PM 42.8 °F 38.0 °F 37.4 °F 81% 29.99 in 7.0 mi NE 8.1 mph - N/A   Mostly Cloudy
11:35 PM 42.8 °F 40.1 °F 37.4 °F 81% 30.00 in 7.0 mi NNE 4.6 mph - N/A   Mostly Cloudy
11:55 PM 42.8 °F 37.5 °F 37.4 °F 81% 30.00 in 7.0 mi NE 9.2 mph - N/A Rain Rain